Volver al catálogo

STARLINK-6108

ActivoComunicacionesVLEO
NORAD 57155·PAYLOAD·🇺🇸 United States

Lanzado Jun 23, 2023 desde Cape Canaveral Space Force Station

Loading…

Próximos Pases (próximas 24 horas)

TLE

ActualizadoSource: CelesTrak SupGP

Época: Sep 14, 2026, 21:52 UTC

1 57155C 23090BG  26257.91159722  .00017107  00000+0  61975-3 0  2578
2 57155  43.0001 275.1395 0001162 268.2996 225.9843 15.27563099    18

Sigue STARLINK-6108 en tiempo real con AllMySat

Download on the App Store